{"data":{"norad_id":63907,"epoch":"2026-05-25T00:14:43.890144Z","epoch_age_seconds":64399,"freshness":"FRESH","line1":"1 63907U 25095T   26145.01023021  .00021082  00000+0  77300-3 0  9995","line2":"2 63907  43.0000 104.8841 0001459 271.0597  89.0087 15.27598513 59451","mean_motion":15.27598513,"eccentricity":0.0001459,"inclination_deg":43,"raan_deg":104.8841,"arg_perigee_deg":271.0597,"mean_anomaly_deg":89.0087,"bstar":0.000773,"rev_number":5945,"period_min":94.265606292849,"perigee_km":481.99262305389,"apogee_km":483.99470098107,"semimajor_km":6861.1306620175,"source":"CELESTRAK","updated_at":"2026-05-25T13:38:20.178554Z"}}